Time,TemperatureF,DewpointF,PressureIn,WindDirection,WindDirectionDegrees,WindSpeedMPH,WindSpeedGustMPH,Humidity,HourlyPrecipIn,Conditions,Clouds,dailyrainin,SoftwareType,DateUTC
2013-06-10 00:03:00,78.0,74.0,30.10,North,359,0.0,0.0,88,0.00,,,3.45,,2013-06-10 04:03:00,
2013-06-10 00:12:00,78.0,74.0,30.10,North,359,0.0,0.0,88,0.00,,,3.45,,2013-06-10 04:12:00,
2013-06-10 00:23:00,78.0,74.0,30.10,North,359,0.0,0.0,88,0.00,,,3.45,,2013-06-10 04:23:00,
2013-06-10 00:33:00,77.0,73.0,30.11,North,359,0.0,0.0,88,0.00,,,0.09,,2013-06-10 04:33:00,
2013-06-10 00:42:00,77.0,73.0,30.11,North,359,0.0,0.0,88,0.00,,,0.09,,2013-06-10 04:42:00,
2013-06-10 00:53:00,77.0,74.0,30.11,North,359,0.0,0.0,89,0.00,,,0.09,,2013-06-10 04:53:00,
2013-06-10 01:02:00,77.0,74.0,30.10,North,359,0.0,0.0,89,0.00,,,0.09,,2013-06-10 05:02:00,
2013-06-10 01:12:00,77.0,74.0,30.10,North,359,0.0,0.0,89,0.00,,,0.09,,2013-06-10 05:12:00,
2013-06-10 01:22:00,77.0,74.0,30.11,North,359,0.0,0.0,90,0.00,,,0.09,,2013-06-10 05:22:00,
2013-06-10 01:32:00,77.0,74.0,30.10,East,96,0.0,0.0,91,0.00,,,0.09,,2013-06-10 05:32:00,
2013-06-10 01:42:00,77.0,74.0,30.10,East,96,0.0,0.0,91,0.00,,,0.09,,2013-06-10 05:42:00,
2013-06-10 01:52:00,77.0,74.0,30.10,ESE,121,0.0,1.0,92,0.00,,,0.09,,2013-06-10 05:52:00,
2013-06-10 02:02:00,77.0,75.0,30.10,East,96,0.0,2.0,94,0.00,,,0.09,,2013-06-10 06:02:00,
2013-06-10 02:12:00,77.0,75.0,30.10,East,96,0.0,2.0,94,0.00,,,0.09,,2013-06-10 06:12:00,
2013-06-10 02:22:00,76.0,74.0,30.09,East,97,0.0,1.0,95,0.00,,,0.09,,2013-06-10 06:22:00,
2013-06-10 02:32:00,76.0,75.0,30.09,ENE,70,1.0,1.0,96,0.00,,,0.09,,2013-06-10 06:32:00,
2013-06-10 02:42:00,76.0,75.0,30.09,ENE,70,1.0,1.0,96,0.00,,,0.09,,2013-06-10 06:42:00,
2013-06-10 02:52:00,76.0,75.0,30.09,East,90,0.0,0.0,96,0.00,,,0.09,,2013-06-10 06:52:00,
2013-06-10 03:02:00,76.0,75.0,30.09,East,90,0.0,0.0,96,0.00,,,0.09,,2013-06-10 07:02:00,
2013-06-10 03:12:00,76.0,75.0,30.09,East,90,0.0,0.0,96,0.00,,,0.09,,2013-06-10 07:12:00,
2013-06-10 03:22:00,76.0,75.0,30.09,East,90,0.0,0.0,97,0.00,,,0.09,,2013-06-10 07:22:00,
2013-06-10 03:32:00,75.0,74.0,30.08,East,90,0.0,0.0,97,0.00,,,0.09,,2013-06-10 07:32:00,
2013-06-10 03:42:00,75.0,74.0,30.08,East,90,0.0,0.0,97,0.00,,,0.09,,2013-06-10 07:42:00,
2013-06-10 03:52:00,75.0,74.0,30.08,East,90,0.0,0.0,98,0.00,,,0.09,,2013-06-10 07:52:00,
2013-06-10 04:02:00,75.0,74.0,30.08,East,79,0.0,0.0,98,0.00,,,0.09,,2013-06-10 08:02:00,
2013-06-10 04:12:00,75.0,74.0,30.08,East,79,0.0,0.0,98,0.00,,,0.09,,2013-06-10 08:12:00,
2013-06-10 04:22:00,75.0,75.0,30.08,East,84,0.0,0.0,99,0.00,,,0.09,,2013-06-10 08:22:00,
2013-06-10 04:32:00,75.0,75.0,30.08,East,84,0.0,0.0,99,0.00,,,0.09,,2013-06-10 08:32:00,
2013-06-10 04:42:00,75.0,75.0,30.08,East,84,0.0,0.0,99,0.00,,,0.09,,2013-06-10 08:42:00,
2013-06-10 04:52:00,75.0,75.0,30.07,East,84,0.0,0.0,100,0.00,,,0.09,,2013-06-10 08:52:00,
2013-06-10 05:02:00,75.0,75.0,30.07,East,84,0.0,0.0,100,0.00,,,0.09,,2013-06-10 09:02:00,
2013-06-10 05:12:00,75.0,75.0,30.07,East,84,0.0,0.0,100,0.00,,,0.09,,2013-06-10 09:12:00,
2013-06-10 05:22:00,75.0,75.0,30.07,East,84,0.0,0.0,100,0.00,,,0.09,,2013-06-10 09:22:00,
2013-06-10 05:32:00,75.0,75.0,30.08,East,84,0.0,0.0,100,0.00,,,0.09,,2013-06-10 09:32:00,
2013-06-10 05:42:00,75.0,75.0,30.08,East,84,0.0,0.0,100,0.00,,,0.09,,2013-06-10 09:42:00,
2013-06-10 05:53:00,75.0,75.0,30.07,East,84,0.0,0.0,100,0.00,,,0.09,,2013-06-10 09:53:00,
2013-06-10 06:03:00,75.0,75.0,30.08,East,84,0.0,0.0,100,0.00,,,0.09,,2013-06-10 10:03:00,
2013-06-10 06:12:00,75.0,75.0,30.08,East,84,0.0,0.0,100,0.00,,,0.09,,2013-06-10 10:12:00,
2013-06-10 06:23:00,74.0,74.0,30.08,East,84,0.0,0.0,100,0.00,,,0.09,,2013-06-10 10:23:00,
2013-06-10 06:33:00,74.0,74.0,30.08,East,84,0.0,0.0,100,0.00,,,0.09,,2013-06-10 10:33:00,
2013-06-10 06:42:00,74.0,74.0,30.08,East,84,0.0,0.0,100,0.00,,,0.09,,2013-06-10 10:42:00,
2013-06-10 06:52:00,74.0,74.0,30.08,East,84,0.0,0.0,100,0.00,,,0.09,,2013-06-10 10:52:00,
2013-06-10 07:03:00,74.0,74.0,30.08,East,84,0.0,0.0,100,0.00,,,0.09,,2013-06-10 11:03:00,
2013-06-10 07:12:00,74.0,74.0,30.08,East,84,0.0,0.0,100,0.00,,,0.09,,2013-06-10 11:12:00,
2013-06-10 07:22:00,75.0,75.0,30.08,East,84,0.0,0.0,100,0.00,,,0.09,,2013-06-10 11:22:00,
2013-06-10 07:32:00,75.0,75.0,30.08,East,84,0.0,0.0,100,0.00,,,0.09,,2013-06-10 11:32:00,
2013-06-10 07:42:00,75.0,75.0,30.08,East,84,0.0,0.0,100,0.00,,,0.09,,2013-06-10 11:42:00,
2013-06-10 07:52:00,76.0,76.0,30.09,ESE,108,3.0,0.0,100,0.00,,,0.09,,2013-06-10 11:52:00,
2013-06-10 08:02:00,76.0,76.0,30.09,North,359,0.0,0.0,100,0.00,,,0.09,,2013-06-10 12:02:00,
2013-06-10 08:12:00,76.0,76.0,30.09,North,359,0.0,0.0,100,0.00,,,0.09,,2013-06-10 12:12:00,
2013-06-10 08:22:00,78.0,78.0,30.09,North,359,0.0,0.0,99,0.00,,,0.09,,2013-06-10 12:22:00,
2013-06-10 08:32:00,79.0,77.0,30.09,East,94,2.0,3.0,95,0.00,,,0.09,,2013-06-10 12:32:00,
2013-06-10 08:42:00,79.0,77.0,30.09,East,94,2.0,3.0,95,0.00,,,0.09,,2013-06-10 12:42:00,
2013-06-10 08:52:00,80.0,77.0,30.10,East,87,0.0,0.0,90,0.00,,,0.09,,2013-06-10 12:52:00,
2013-06-10 09:02:00,81.0,76.0,30.10,South,173,6.0,6.0,84,0.00,,,0.09,,2013-06-10 13:02:00,
2013-06-10 09:12:00,81.0,76.0,30.10,South,173,6.0,6.0,84,0.00,,,0.09,,2013-06-10 13:12:00,
2013-06-10 09:22:00,83.0,76.0,30.10,South,170,0.0,0.0,80,0.00,,,0.09,,2013-06-10 13:22:00,
2013-06-10 09:32:00,83.0,76.0,30.10,South,170,0.0,0.0,79,0.00,,,0.09,,2013-06-10 13:32:00,
2013-06-10 09:42:00,82.0,75.0,30.11,SE,146,0.0,0.0,79,0.00,,,0.09,,2013-06-10 13:42:00,
2013-06-10 09:52:00,82.0,75.0,30.11,SE,146,0.0,0.0,79,0.00,,,0.09,,2013-06-10 13:52:00,
2013-06-10 10:02:00,82.0,74.0,30.11,SE,146,0.0,0.0,78,0.00,,,0.09,,2013-06-10 14:02:00,
2013-06-10 10:12:00,83.0,75.0,30.11,SE,146,0.0,0.0,76,0.00,,,0.09,,2013-06-10 14:12:00,
2013-06-10 10:22:00,83.0,75.0,30.11,SE,146,0.0,0.0,76,0.00,,,0.09,,2013-06-10 14:22:00,
2013-06-10 10:32:00,84.0,74.0,30.11,SE,146,0.0,0.0,72,0.00,,,0.09,,2013-06-10 14:32:00,
2013-06-10 10:42:00,83.0,73.0,30.11,SE,146,0.0,0.0,73,0.00,,,0.09,,2013-06-10 14:42:00,
2013-06-10 10:52:00,83.0,73.0,30.11,SE,146,0.0,0.0,73,0.00,,,0.09,,2013-06-10 14:52:00,
2013-06-10 11:02:00,83.0,73.0,30.11,SE,146,0.0,0.0,72,0.00,,,0.09,,2013-06-10 15:02:00,
2013-06-10 11:12:00,83.0,73.0,30.11,SE,146,0.0,0.0,72,0.00,,,0.09,,2013-06-10 15:12:00,
2013-06-10 11:22:00,83.0,73.0,30.11,SE,146,0.0,0.0,72,0.00,,,0.09,,2013-06-10 15:22:00,
2013-06-10 11:33:00,83.0,73.0,30.11,SE,146,0.0,0.0,71,0.00,,,0.09,,2013-06-10 15:33:00,
2013-06-10 11:43:00,84.0,73.0,30.10,SE,134,3.0,4.0,70,0.00,,,0.09,,2013-06-10 15:43:00,
2013-06-10 11:53:00,84.0,73.0,30.10,SE,134,3.0,4.0,70,0.00,,,0.09,,2013-06-10 15:53:00,
2013-06-10 12:03:00,85.0,71.0,30.10,South,172,0.0,4.0,63,0.00,,,0.09,,2013-06-10 16:03:00,
2013-06-10 12:13:00,86.0,71.0,30.09,NE,45,1.0,2.0,61,0.00,,,0.09,,2013-06-10 16:13:00,
2013-06-10 12:23:00,86.0,71.0,30.09,NE,45,1.0,2.0,61,0.00,,,0.09,,2013-06-10 16:23:00,
2013-06-10 12:33:00,86.0,71.0,30.09,SSE,150,0.0,0.0,62,0.00,,,0.09,,2013-06-10 16:33:00,
2013-06-10 12:43:00,87.0,71.0,30.09,SSW,203,0.0,0.0,59,0.00,,,0.09,,2013-06-10 16:43:00,
2013-06-10 12:53:00,87.0,71.0,30.09,SSW,203,0.0,0.0,59,0.00,,,0.09,,2013-06-10 16:53:00,
2013-06-10 13:03:00,87.0,70.0,30.09,SSW,203,0.0,0.0,57,0.00,,,0.09,,2013-06-10 17:03:00,
2013-06-10 13:14:00,87.0,69.0,30.08,SSW,203,0.0,0.0,55,0.00,,,0.09,,2013-06-10 17:14:00,
2013-06-10 13:27:00,87.0,69.0,30.08,SSW,203,0.0,0.0,55,0.00,,,0.09,,2013-06-10 17:27:00,
2013-06-10 13:38:00,88.0,69.0,30.08,North,359,4.0,4.0,54,0.00,,,0.09,,2013-06-10 17:38:00,
2013-06-10 13:48:00,89.0,70.0,30.07,SW,225,0.0,0.0,53,0.00,,,0.09,,2013-06-10 17:48:00,
2013-06-10 13:58:00,89.0,70.0,30.07,SW,225,0.0,0.0,53,0.00,,,0.09,,2013-06-10 17:58:00,
2013-06-10 14:07:00,89.0,71.0,30.07,SW,236,4.0,4.0,55,0.00,,,0.09,,2013-06-10 18:07:00,
2013-06-10 14:14:00,89.0,71.0,30.07,SW,236,4.0,4.0,55,0.00,,,0.09,,2013-06-10 18:14:00,
2013-06-10 14:25:00,90.0,71.0,30.06,North,359,0.0,0.0,53,0.00,,,0.09,,2013-06-10 18:25:00,
2013-06-10 14:35:00,90.0,71.0,30.06,East,90,6.0,6.0,53,0.00,,,0.09,,2013-06-10 18:35:00,
2013-06-10 14:48:00,90.0,69.0,30.06,SSE,167,3.0,3.0,51,0.00,,,0.09,,2013-06-10 18:48:00,
2013-06-10 14:55:00,90.0,69.0,30.06,SSE,167,3.0,3.0,51,0.00,,,0.09,,2013-06-10 18:55:00,
2013-06-10 15:03:00,90.0,71.0,30.05,East,90,3.0,3.0,53,0.00,,,0.09,,2013-06-10 19:03:00,
2013-06-10 15:13:00,91.0,70.0,30.05,East,79,2.0,6.0,51,0.00,,,0.09,,2013-06-10 19:13:00,
2013-06-10 15:22:00,91.0,70.0,30.05,East,79,2.0,6.0,51,0.00,,,0.09,,2013-06-10 19:22:00,
2013-06-10 15:33:00,89.0,73.0,30.04,ENE,59,6.0,7.0,60,0.00,,,0.09,,2013-06-10 19:33:00,
2013-06-10 15:43:00,87.0,73.0,30.03,North,359,0.0,0.0,63,0.00,,,0.09,,2013-06-10 19:43:00,
2013-06-10 15:53:00,87.0,73.0,30.03,North,359,0.0,0.0,63,0.00,,,0.09,,2013-06-10 19:53:00,
2013-06-10 16:03:00,88.0,73.0,30.03,North,359,0.0,0.0,62,0.00,,,0.09,,2013-06-10 20:03:00,
2013-06-10 16:12:00,88.0,73.0,30.03,North,359,0.0,0.0,62,0.00,,,0.09,,2013-06-10 20:12:00,
2013-06-10 16:23:00,88.0,72.0,30.03,North,359,0.0,0.0,59,0.00,,,0.09,,2013-06-10 20:23:00,
2013-06-10 16:32:00,88.0,73.0,30.03,North,359,0.0,0.0,61,0.00,,,0.09,,2013-06-10 20:32:00,
2013-06-10 16:43:00,88.0,73.0,30.03,North,359,0.0,0.0,61,0.00,,,0.09,,2013-06-10 20:43:00,
2013-06-10 16:53:00,87.0,72.0,30.03,ENE,65,5.0,7.0,62,0.00,,,0.09,,2013-06-10 20:53:00,
2013-06-10 17:02:00,87.0,73.0,30.01,NNE,31,4.0,4.0,63,0.00,,,0.09,,2013-06-10 21:02:00,
2013-06-10 17:12:00,87.0,73.0,30.01,NNE,31,4.0,4.0,63,0.00,,,0.09,,2013-06-10 21:12:00,
2013-06-10 17:23:00,86.0,72.0,30.02,North,359,4.0,0.0,63,0.00,,,0.09,,2013-06-10 21:23:00,
2013-06-10 17:33:00,85.0,71.0,30.03,WSW,248,6.0,6.0,63,0.00,,,0.09,,2013-06-10 21:33:00,
2013-06-10 17:43:00,82.0,76.0,30.04,South,184,3.0,6.0,81,0.00,,,0.09,,2013-06-10 21:43:00,
2013-06-10 17:53:00,82.0,76.0,30.04,South,184,3.0,6.0,81,0.00,,,0.09,,2013-06-10 21:53:00,
2013-06-10 18:03:00,81.0,75.0,30.05,North,359,7.0,7.0,83,0.00,,,0.09,,2013-06-10 22:03:00,
2013-06-10 18:13:00,77.0,74.0,30.04,WNW,287,1.0,0.0,89,0.00,,,0.09,,2013-06-10 22:13:00,
2013-06-10 18:22:00,77.0,74.0,30.04,WNW,287,1.0,0.0,89,0.00,,,0.09,,2013-06-10 22:22:00,
2013-06-10 18:33:00,76.0,73.0,30.05,West,259,2.0,6.0,91,0.13,,,0.09,,2013-06-10 22:33:00,
2013-06-10 18:42:00,74.0,71.0,30.05,West,266,0.0,0.0,91,0.13,,,0.09,,2013-06-10 22:42:00,
2013-06-10 18:52:00,74.0,71.0,30.05,West,266,0.0,0.0,91,0.13,,,0.09,,2013-06-10 22:52:00,
2013-06-10 19:03:00,74.0,72.0,30.03,West,266,0.0,0.0,94,0.13,,,0.09,,2013-06-10 23:03:00,
2013-06-10 19:12:00,74.0,73.0,30.04,West,266,0.0,0.0,96,0.13,,,0.09,,2013-06-10 23:12:00,
2013-06-10 19:22:00,74.0,73.0,30.04,West,266,0.0,0.0,96,0.13,,,0.09,,2013-06-10 23:22:00,
2013-06-10 19:32:00,74.0,73.0,30.04,West,266,0.0,0.0,97,0.01,,,0.09,,2013-06-10 23:32:00,
2013-06-10 19:42:00,74.0,73.0,30.04,West,266,0.0,0.0,98,0.01,,,0.09,,2013-06-10 23:42:00,
2013-06-10 19:52:00,74.0,73.0,30.04,West,266,0.0,0.0,98,0.01,,,0.09,,2013-06-10 23:52:00,
2013-06-10 20:02:00,75.0,74.0,30.04,West,266,0.0,0.0,98,0.01,,,0.09,,2013-06-11 00:02:00,
2013-06-10 20:12:00,75.0,74.0,30.04,West,266,0.0,0.0,98,0.01,,,0.09,,2013-06-11 00:12:00,
2013-06-10 20:22:00,75.0,74.0,30.04,West,266,0.0,0.0,98,0.01,,,0.09,,2013-06-11 00:22:00,
2013-06-10 20:32:00,76.0,76.0,30.05,West,266,0.0,0.0,99,0.00,,,0.09,,2013-06-11 00:32:00,
2013-06-10 20:42:00,76.0,76.0,30.05,West,266,0.0,0.0,99,0.00,,,0.09,,2013-06-11 00:42:00,
2013-06-10 20:52:00,76.0,76.0,30.05,West,266,0.0,0.0,99,0.00,,,0.09,,2013-06-11 00:52:00,
2013-06-10 21:02:00,76.0,76.0,30.05,West,266,0.0,0.0,99,0.00,,,0.09,,2013-06-11 01:02:00,
2013-06-10 21:12:00,76.0,76.0,30.06,West,266,0.0,0.0,99,0.00,,,0.09,,2013-06-11 01:12:00,
2013-06-10 21:22:00,76.0,76.0,30.06,West,266,0.0,0.0,99,0.00,,,0.09,,2013-06-11 01:22:00,
2013-06-10 21:33:00,76.0,76.0,30.06,West,266,0.0,0.0,99,0.00,,,0.09,,2013-06-11 01:33:00,
2013-06-10 21:42:00,76.0,76.0,30.06,West,266,0.0,0.0,99,0.00,,,0.09,,2013-06-11 01:42:00,
2013-06-10 21:53:00,76.0,76.0,30.06,West,266,0.0,0.0,99,0.00,,,0.09,,2013-06-11 01:53:00,
2013-06-10 22:02:00,76.0,76.0,30.07,West,266,0.0,0.0,99,0.00,,,0.09,,2013-06-11 02:02:00,
2013-06-10 22:12:00,76.0,76.0,30.07,West,266,0.0,0.0,99,0.00,,,0.09,,2013-06-11 02:12:00,
2013-06-10 22:22:00,76.0,76.0,30.07,West,266,0.0,0.0,99,0.00,,,0.09,,2013-06-11 02:22:00,
2013-06-10 22:32:00,76.0,76.0,30.08,West,266,0.0,0.0,100,0.00,,,0.09,,2013-06-11 02:32:00,
2013-06-10 22:42:00,76.0,76.0,30.08,West,266,0.0,0.0,100,0.00,,,0.09,,2013-06-11 02:42:00,
2013-06-10 22:52:00,76.0,76.0,30.08,West,266,0.0,0.0,100,0.00,,,0.09,,2013-06-11 02:52:00,
2013-06-10 23:03:00,76.0,76.0,30.09,West,266,0.0,0.0,100,0.00,,,0.09,,2013-06-11 03:03:00,
2013-06-10 23:13:00,76.0,76.0,30.09,West,266,0.0,0.0,100,0.00,,,0.09,,2013-06-11 03:13:00,
2013-06-10 23:22:00,76.0,76.0,30.09,West,266,0.0,0.0,100,0.00,,,0.09,,2013-06-11 03:22:00,
2013-06-10 23:32:00,76.0,76.0,30.09,West,266,0.0,0.0,100,0.00,,,0.09,,2013-06-11 03:32:00,
2013-06-10 23:43:00,75.0,75.0,30.09,West,266,0.0,0.0,100,0.00,,,0.09,,2013-06-11 03:43:00,
2013-06-10 23:53:00,75.0,75.0,30.09,West,266,0.0,0.0,100,0.00,,,0.09,,2013-06-11 03:53:00,